EW8280 Weather Reports


time (UTC)temp
C
wind
direction
speed
KPH
gust
KPH
rain 1hr
cm
rain 24hr
cm
rain mn
cm
humidity
%
barometer
mb
20260509090024 9 28 0.0 0.0 0.00 0.00 0.00 92 1002.4
20260509084557 9 26 0.0 0.0 0.00 0.00 0.00 92 1002.5
20260509083036 9 51 0.0 0.0 0.00 0.00 0.00 91 1002.6
20260509081506 9 16 0.0 0.0 0.00 0.00 0.00 91 1002.7
20260509080041 9 24 0.0 0.0 0.00 0.00 0.00 91 1002.8
20260509074512 9 24 0.0 0.0 0.00 0.00 0.00 90 1002.8
20260509073048 9 23 0.0 0.0 0.00 0.00 0.00 90 1003.0
20260509071522 10 22 0.0 0.0 0.00 0.00 0.00 90 1003.1
20260509070104 10 22 0.0 0.0 0.00 0.00 0.00 89 1003.4
20260509064530 10 22 0.0 0.0 0.00 0.00 0.00 88 1003.6
20260509063006 10 23 0.0 0.0 0.00 0.00 0.00 87 1003.4
20260509061546 10 23 0.0 0.0 0.00 0.00 0.00 87 1003.5
20260509060008 11 23 0.0 0.0 0.00 0.00 0.00 87 1003.8
20260509054547 11 22 0.0 0.0 0.00 0.00 0.00 86 1003.8
20260509053016 11 19 0.0 1.6 0.00 0.00 0.00 86 1003.9
20260509051556 11 29 0.0 0.0 0.00 0.00 0.00 86 1004.1
20260509050044 11 25 0.0 1.6 0.00 0.00 0.00 86 1004.1
20260509044502 11 23 0.0 1.6 0.00 0.00 0.00 86 1004.1
20260509043035 11 46 0.0 1.6 0.00 0.00 0.00 84 1004.1
20260509041507 10 117 0.0 0.0 0.00 0.00 0.00 82 1004.4
20260509040043 10 117 0.0 0.0 0.00 0.00 0.00 80 1004.4
20260509034514 10 139 0.0 0.0 0.00 0.00 0.00 78 1004.5
20260509033049 10 171 0.0 0.0 0.00 0.00 0.00 75 1004.7
20260509031526 10 173 0.0 0.0 0.00 0.00 0.00 74 1004.7
20260509030100 10 173 0.0 0.0 0.00 0.00 0.00 73 1004.9
20260509024533 10 173 0.0 0.0 0.00 0.00 0.00 73 1004.9
20260509023012 11 173 0.0 0.0 0.00 0.00 0.00 72 1004.9
20260509021546 11 173 0.0 0.0 0.00 0.00 0.00 71 1004.9
20260509020010 11 173 0.0 0.0 0.00 0.00 0.00 68 1005.1
20260509014544 12 173 0.0 0.0 0.00 0.00 0.00 66 1005.0
20260509013015 12 173 0.0 0.0 0.00 0.00 0.00 64 1004.9
20260509011550 13 173 0.0 0.0 0.00 0.00 0.00 59 1004.9
20260509010022 14 173 0.0 0.0 0.00 0.00 0.00 56 1004.9
20260509004600 15 173 0.0 0.0 0.00 0.00 0.00 53 1005.0
20260509003038 16 173 0.0 0.0 0.00 0.00 0.00 51 1004.9
20260509001508 16 173 0.0 0.0 0.00 0.00 0.00 50 1004.8
20260509000044 16 173 0.0 0.0 0.00 0.00 0.00 49 1004.9
20260508234521 17 178 0.0 1.6 0.00 0.00 0.00 47 1004.9
20260508233054 17 186 0.0 1.6 0.00 0.00 0.00 45 1005.0
20260508231528 17 164 0.0 3.2 0.00 0.00 0.00 42 1005.1
20260508230005 17 186 0.0 0.0 0.00 0.00 0.00 41 1005.2
20260508224538 18 201 0.0 0.0 0.00 0.00 0.00 43 1005.1
20260508223011 19 181 0.0 1.6 0.00 0.00 0.00 41 1005.3
20260508221546 19 185 0.0 0.0 0.00 0.00 0.00 41 1005.4
20260508220018 19 184 0.0 1.6 0.00 0.00 0.00 39 1005.6
20260508214600 19 183 0.0 1.6 0.00 0.00 0.00 42 1005.5
20260508213026 18 192 0.0 0.0 0.00 0.00 0.00 39 1005.6
20260508211505 18 196 0.0 1.6 0.00 0.00 0.00 38 1005.6
20260508210034 18 200 0.0 0.0 0.00 0.00 0.00 34 1005.7
20260508204507 18 218 0.0 1.6 0.00 0.00 0.00 37 1005.9
20260508203040 18 191 0.0 3.2 0.00 0.00 0.00 33 1006.1
20260508201519 18 209 0.0 1.6 0.00 0.00 0.00 35 1006.2
20260508200052 18 202 0.0 1.6 0.00 0.00 0.00 35 1006.4
20260508194526 18 188 0.0 0.0 0.00 0.00 0.00 38 1006.5
20260508193051 17 64 0.0 1.6 0.00 0.00 0.00 37 1006.8
20260508191522 18 198 0.0 1.6 0.00 0.00 0.00 40 1007.0
20260508190054 17 202 0.0 1.6 0.00 0.00 0.00 44 1007.2
20260508184531 17 163 0.0 0.0 0.00 0.00 0.00 46 1007.4
20260508183059 16 155 0.0 3.2 0.00 0.00 0.00 46 1007.6
20260508181550 16 197 0.0 1.6 0.00 0.00 0.00 46 1007.8
20260508180004 16 168 0.0 1.6 0.00 0.00 0.00 51 1008.0
20260508174543 15 238 0.0 0.0 0.00 0.00 0.00 51 1008.2
20260508173008 15 209 0.0 1.6 0.00 0.00 0.00 55 1008.4
20260508171540 15 194 0.0 0.0 0.00 0.00 0.00 53 1008.8
20260508170007 15 128 0.0 1.6 0.00 0.00 0.00 59 1008.8
20260508164543 15 11 0.0 0.0 0.00 0.00 0.00 59 1008.8
20260508163019 15 179 0.0 0.0 0.00 0.00 0.00 61 1009.1
20260508161600 15 216 0.0 1.6 0.00 0.00 0.00 59 1009.3
20260508160026 14 184 0.0 1.6 0.00 0.00 0.00 57 1009.4
20260508154549 13 58 0.0 0.0 0.00 0.00 0.00 63 1009.4
20260508153023 13 34 0.0 1.6 0.00 0.00 0.00 66 1009.5
20260508151605 12 67 0.0 0.0 0.00 0.00 0.00 76 1009.4
20260508150025 12 29 0.0 0.0 0.00 0.00 0.00 78 1009.4
20260508144556 11 45 0.0 1.6 0.00 0.00 0.00 83 1009.5
20260508143029 10 30 0.0 0.0 0.00 0.00 0.00 87 1009.6
20260508141602 10 42 0.0 1.6 0.00 0.00 0.00 91 1009.6
20260508140034 9 49 0.0 0.0 0.00 0.00 0.00 94 1009.8
20260508134501 8 48 0.0 0.0 0.00 0.00 0.00 94 1009.9
20260508133050 8 45 0.0 0.0 0.00 0.00 0.00 95 1009.9
20260508131507 7 45 0.0 0.0 0.00 0.00 0.00 95 1010.1
20260508130041 7 44 0.0 0.0 0.00 0.00 0.00 95 1010.0
20260508124513 6 44 0.0 0.0 0.00 0.00 0.00 95 1010.1
20260508123053 6 44 0.0 0.0 0.00 0.00 0.00 95 1010.2
20260508121516 4 44 0.0 0.0 0.00 0.00 0.00 95 1010.1
20260508120054 3 44 0.0 0.0 0.00 0.00 0.00 94 1010.0
20260508114524 3 44 0.0 0.0 0.00 0.00 0.00 94 1009.8
20260508113102 2 44 0.0 0.0 0.00 0.00 0.00 94 1009.7
20260508111536 2 44 0.0 0.0 0.00 0.00 0.00 93 1009.6
20260508110010 2 44 0.0 0.0 0.00 0.00 0.00 93 1009.5
20260508104548 2 44 0.0 0.0 0.00 0.00 0.00 93 1009.4
20260508103022 2 44 0.0 0.0 0.00 0.00 0.00 93 1009.3
20260508101558 3 44 0.0 0.0 0.00 0.00 0.00 93 1009.5
20260508100031 3 44 0.0 0.0 0.00 0.00 0.00 93 1009.5
20260508094505 3 44 0.0 0.0 0.00 0.00 0.00 93 1009.4
20260508093039 3 44 0.0 0.0 0.00 0.00 0.00 93 1009.4
20260508091512 3 44 0.0 0.0 0.00 0.00 0.00 92 1009.4